TimeCST,TemperatureF,Dew PointF,Humidity,Sea Level PressureIn,VisibilityMPH,Wind Direction,Wind SpeedMPH,Gust SpeedMPH,PrecipitationIn,Events,Conditions,WindDirDegrees,DateUTC
12:52 AM,46.0,35.1,66,30.02,-9999.0,SSW,6.9,-,N/A,,Unknown,200,2012-11-30 06:52:00
1:52 AM,43.0,34.0,71,30.03,-9999.0,South,6.9,-,N/A,,Unknown,180,2012-11-30 07:52:00
2:52 AM,39.9,33.1,77,30.04,-9999.0,South,5.8,-,N/A,,Unknown,180,2012-11-30 08:52:00
3:52 AM,37.9,32.0,79,30.02,-9999.0,South,5.8,-,N/A,,Unknown,180,2012-11-30 09:52:00
4:52 AM,37.9,32.0,79,30.04,-9999.0,Calm,Calm,-,N/A,,Unknown,0,2012-11-30 10:52:00
5:52 AM,36.0,32.0,86,30.05,-9999.0,South,4.6,-,N/A,,Unknown,170,2012-11-30 11:52:00
6:52 AM,35.1,30.9,85,30.07,-9999.0,South,3.5,-,N/A,,Unknown,190,2012-11-30 12:52:00
7:52 AM,34.0,30.0,85,30.09,-9999.0,Calm,Calm,-,N/A,,Unknown,0,2012-11-30 13:52:00
8:52 AM,45.0,36.0,71,30.09,-9999.0,SW,5.8,-,N/A,,Unknown,230,2012-11-30 14:52:00
9:52 AM,48.0,35.1,61,30.10,-9999.0,West,6.9,-,N/A,,Unknown,280,2012-11-30 15:52:00
10:52 AM,51.1,35.1,54,30.11,-9999.0,SW,5.8,-,N/A,,Unknown,230,2012-11-30 16:52:00
11:52 AM,54.0,36.0,51,30.09,-9999.0,Variable,3.5,-,N/A,,Unknown,0,2012-11-30 17:52:00
12:52 PM,57.0,37.0,47,30.06,-9999.0,SW,3.5,-,N/A,,Unknown,230,2012-11-30 18:52:00
1:52 PM,61.0,36.0,39,30.06,-9999.0,Variable,3.5,-,N/A,,Unknown,0,2012-11-30 19:52:00
2:52 PM,60.1,36.0,41,30.06,-9999.0,Calm,Calm,-,N/A,,Unknown,0,2012-11-30 20:52:00
3:52 PM,57.9,36.0,44,30.07,-9999.0,Calm,Calm,-,N/A,,Unknown,0,2012-11-30 21:52:00
4:52 PM,52.0,36.0,54,30.06,-9999.0,Calm,Calm,-,N/A,,Unknown,0,2012-11-30 22:52:00
5:52 PM,46.9,36.0,66,30.08,-9999.0,Calm,Calm,-,N/A,,Unknown,0,2012-11-30 23:52:00
6:52 PM,42.1,34.0,73,30.09,-9999.0,Calm,Calm,-,N/A,,Unknown,0,2012-12-01 00:52:00
7:52 PM,37.9,32.0,79,30.10,-9999.0,Calm,Calm,-,N/A,,Unknown,0,2012-12-01 01:52:00
8:52 PM,37.0,30.9,79,30.08,-9999.0,Calm,Calm,-,N/A,,Unknown,0,2012-12-01 02:52:00
9:52 PM,37.9,33.1,83,30.07,-9999.0,Calm,Calm,-,N/A,,Unknown,0,2012-12-01 03:52:00
10:52 PM,37.0,33.1,86,30.06,-9999.0,Calm,Calm,-,N/A,,Unknown,0,2012-12-01 04:52:00
11:52 PM,39.0,33.1,79,30.06,-9999.0,Calm,Calm,-,N/A,,Unknown,0,2012-12-01 05:52:00